Weather History for KISN - June, 2013

Change the Weather History Date:

Friday, June 28, 2013

  Actual Average Record
Temperature  
Mean Temperature 68 °F 67 °F  
Max Temperature 82 °F 81 °F 101 °F (1931)
Min Temperature 54 °F 53 °F 38 °F (1999)
Degree Days  
Heating Degree Days 0 2  
Month to date heating degree days 127 116  
Since 1 June heating degree days 127 116  
Since 1 July heating degree days 9420 8990  
Cooling Degree Days 3 4  
Month to date cooling degree days 26 59  
Year to date cooling degree days 34 72  
Since 1 June cooling degree days 26 59  
Growing Degree Days 18 (Base 50)    
Moisture  
Dew Point 55 °F    
Average Humidity 63    
Maximum Humidity 86    
Minimum Humidity 39    
Precipitation  
Precipitation 0.00 in 0.09 in 1.68 in (1952)
Month to date precipitation 4.16 2.35  
Year to date precipitation 11.97 6.96  
Snow  
Snow 0.00 in 0.00 in 0.00 in (2002)
Month to date snowfall 0.0 0.0  
Since 1 June snowfall 0.0 0.0  
Since 1 July snowfall 58.1 45.3  
Snow Depth 0.00 in    
Sea Level Pressure  
Sea Level Pressure 30.12 in    
Wind  
Wind Speed 8 mph (NW)    
Max Wind Speed 18 mph    
Max Gust Speed 31 mph    
Visibility 10 miles    
Events      
T = Trace of Precipitation, MM = Missing Value Source: NWS Daily Summary

Daily Weather History Graph

Daily Weather History Graph

Search for Another Location

Airport or City:

Trip Planner

Search our weather history database for the weather conditions in past years. The results will help you decide how hot, cold, wet, or windy it might be!

Date:

Astronomy

Jun. 28, 2013 Rise Set
Actual Time 5:56 AM CDT 9:58 PM CDT
Civil Twilight 5:15 AM CDT 10:40 PM CDT
Nautical Twilight 4:17 AM CDT 11:37 PM CDT
Astronomical Twilight 2:37 AM CDT 1:16 AM CDT
Moon 12:29 AM CDT (6/28) 12:37 PM CDT (6/28)
Length of Visible Light 17h 24m
Length of Day
16h 02m
Waning Gibbous, 66% of the Moon is Illuminated
Jun 28
Waning Gibbous
Jun 29
Last Quarter
Jul 8
New
Jul 15
First Quarter
Jul 22
Full

Hourly Weather History & Observations

Time (CDT) Temp. Heat Index Dew Point Humidity Pressure Visibility Wind Dir Wind Speed Gust Speed Precip Events Conditions
12:52 AM 61.0 °F - 55.0 °F 81% 30.09 in 10.0 mi NW 4.6 mph - N/A   Clear
1:52 AM 62.1 °F - 55.0 °F 78% 30.09 in 10.0 mi Calm Calm - N/A   Clear
2:52 AM 59.0 °F - 54.0 °F 83% 30.10 in 10.0 mi Calm Calm - N/A   Clear
3:52 AM 57.9 °F - 54.0 °F 87% 30.11 in 10.0 mi Calm Calm - N/A   Clear
4:52 AM 55.9 °F - 52.0 °F 87% 30.11 in 10.0 mi Calm Calm - N/A   Clear
5:52 AM 55.0 °F - 52.0 °F 89% 30.12 in 10.0 mi SW 4.6 mph - N/A   Clear
6:52 AM 57.0 °F - 54.0 °F 89% 30.14 in 10.0 mi SW 4.6 mph - N/A   Clear
7:52 AM 63.0 °F - 55.9 °F 78% 30.14 in 10.0 mi West 3.5 mph - N/A   Clear
8:52 AM 66.9 °F - 57.9 °F 73% 30.15 in 10.0 mi WSW 4.6 mph - N/A   Clear
9:52 AM 73.0 °F - 60.1 °F 64% 30.15 in 10.0 mi West 6.9 mph - N/A   Clear
10:52 AM 75.0 °F - 57.9 °F 55% 30.14 in 10.0 mi WNW 13.8 mph - N/A   Clear
11:52 AM 78.1 °F - 57.0 °F 48% 30.14 in 10.0 mi NW 11.5 mph - N/A   Clear
12:52 PM 80.1 °F 80.6 °F 57.9 °F 47% 30.13 in 10.0 mi NW 16.1 mph 23.0 mph N/A   Partly Cloudy
1:52 PM 80.1 °F 80.7 °F 59.0 °F 48% 30.12 in 10.0 mi NW 9.2 mph 21.9 mph N/A   Clear
2:52 PM 81.0 °F 80.7 °F 55.0 °F 41% 30.12 in 10.0 mi NW 16.1 mph 21.9 mph N/A   Partly Cloudy
3:52 PM 81.0 °F 80.7 °F 55.0 °F 41% 30.12 in 10.0 mi NNW 18.4 mph 21.9 mph N/A   Clear
4:52 PM 81.0 °F 80.7 °F 55.0 °F 41% 30.12 in 10.0 mi NNW 16.1 mph 21.9 mph N/A   Clear
5:52 PM 80.1 °F 80.1 °F 55.0 °F 42% 30.12 in 10.0 mi North 16.1 mph 21.9 mph N/A   Clear
6:52 PM 78.1 °F - 51.1 °F 39% 30.12 in 10.0 mi North 16.1 mph - N/A   Clear
7:52 PM 77.0 °F - 52.0 °F 42% 30.12 in 10.0 mi North 12.7 mph - N/A   Clear
8:52 PM 73.0 °F - 52.0 °F 48% 30.13 in 10.0 mi North 6.9 mph - N/A   Clear
9:52 PM 62.1 °F - 55.0 °F 78% 30.12 in 9.0 mi NNW 4.6 mph - N/A   Clear
10:52 PM 61.0 °F - 53.1 °F 75% 30.12 in 10.0 mi NW 3.5 mph - N/A   Clear
11:52 PM 57.9 °F - 52.0 °F 81% 30.12 in 10.0 mi Calm Calm - N/A   Clear